User: anonymous   Login
Location: Edinburgh
(55.9500°N, 3.1600°W)
Time: 22:25:38
(UTC+00:00)
Language:

Hubble Space Telescope - Orbit

View from above orbital plane
View from above orbital plane
View from above satellite
View from above satellite

Ground track
Ground track

The orbit data is extracted from the following two-line orbital elements,

1 20580U 90037B   17346.93492061 +.00000478 +00000-0 +18353-4 0  9992
2 20580 028.4696 266.2508 0002492 297.1339 133.5733 15.08942755317228
Epoch (UTC): 12 December 2017 22:26:17
Eccentricity: 0.0002492
inclination: 28.4696°
perigee height: 538 km
apogee height: 541 km
right ascension of ascending node: 266.2508°
argument of perigee: 297.1339°
revolutions per day: 15.08942755
mean anomaly at epoch: 133.5733°
orbit number at epoch: 31722

The dashed part of the orbit path shows where the satellite is in the earth's shadow,  

DLR